Location: Biharia
(46.4333°N, 22.8000°E)
Time: 10:46:49
(UTC+00:00)

Cosmos 1174 - Pass Details

Date: 16 October 2021
Orbit: 373 x 1139 km, 66.1° (Epoch: 02 December)

Event Time Altitude Azimuth Distance (km) Brightness Sun altitude
Rises 17:17:09 0° 221° (SW) 2,458 7.7 -17.4°
Reaches altitude 10° 17:19:23 10° 226° (SW) 1,510 6.6 -17.8°
Maximum altitude 17:22:35 58° 306° (NW) 465 3.7 -18.4°
Enters shadow 17:23:51 30° 14° (NNE) 726 4.3 -18.6°
